KN6WGU Weather Reports


time (UTC)temp
C
wind
direction
speed
KPH
gust
KPH
rain 1hr
cm
rain 24hr
cm
rain mn
cm
humidity
%
barometer
mb
20260508125939 10 145 0.0 0.0 0.00 0.08 0.08 80 1006.1
20260508125435 10 150 0.0 0.0 0.00 0.08 0.08 82 1006.1
20260508124933 10 142 0.0 0.0 0.00 0.08 0.08 85 1006.2
20260508124431 9 143 0.0 0.0 0.18 0.08 0.08 85 1006.0
20260508123928 9 138 0.0 0.0 0.18 0.08 0.08 84 1005.8
20260508123427 9 153 0.0 0.0 0.13 0.05 0.05 83 1005.8
20260508122923 9 154 0.0 0.0 0.30 0.05 0.05 84 1005.9
20260508122420 10 133 0.0 0.0 0.30 0.05 0.05 81 1005.9
20260508121917 10 135 0.0 0.0 0.00 0.00 0.00 80 1006.5
20260508121415 10 179 0.0 1.6 0.00 0.00 0.00 79 1006.1
20260508120912 10 139 1.6 1.6 0.00 0.00 0.00 76 1005.9
20260508120410 10 129 0.0 0.0 0.00 0.00 0.00 75 1005.9
20260508115907 10 136 0.0 0.0 0.00 0.00 0.00 75 1005.8
20260508115405 10 162 0.0 0.0 0.00 0.00 0.00 74 1005.4
20260508114901 10 160 0.0 1.6 0.00 0.00 0.00 74 1005.5
20260508114358 10 222 3.2 3.2 0.00 0.00 0.00 73 1005.4
20260508113855 10 165 1.6 1.6 0.00 0.00 0.00 73 1005.5
20260508113353 10 200 3.2 3.2 0.00 0.00 0.00 73 1005.1
20260508112849 10 157 0.0 0.0 0.00 0.00 0.00 73 1005.3
20260508112347 10 156 0.0 0.0 0.00 0.00 0.00 73 1005.1
20260508111843 10 166 3.2 3.2 0.00 0.00 0.00 72 1005.2
20260508111340 10 157 3.2 4.8 0.00 0.00 0.00 72 1005.1
20260508110837 10 156 0.0 0.0 0.00 0.00 0.00 72 1004.9
20260508110335 10 167 3.2 3.2 0.00 0.00 0.00 71 1005.0
20260508105834 10 155 1.6 1.6 0.00 0.00 0.00 72 1005.0
20260508105331 10 158 3.2 3.2 0.00 0.00 0.00 72 1005.1
20260508104828 10 166 0.0 0.0 0.00 0.00 0.00 72 1005.0
20260508104320 10 161 1.6 3.2 0.00 0.00 0.00 73 1005.0
20260508103817 10 172 1.6 1.6 0.00 0.00 0.00 73 1005.1
20260508103314 10 196 0.0 1.6 0.00 0.00 0.00 74 1005.1
20260508102812 10 243 1.6 3.2 0.00 0.00 0.00 74 1005.1
20260508102310 9 192 3.2 3.2 0.00 0.00 0.00 74 1005.0
20260508101807 9 201 1.6 3.2 0.00 0.00 0.00 75 1004.9
20260508101304 8 150 1.6 1.6 0.00 0.00 0.00 77 1004.9
20260508100801 8 183 1.6 3.2 0.00 0.00 0.00 78 1004.9
20260508100300 8 156 0.0 0.0 0.00 0.00 0.00 78 1005.0
20260508095755 8 163 1.6 3.2 0.00 0.00 0.00 79 1005.1
20260508095253 8 167 0.0 0.0 0.00 0.00 0.00 80 1004.9
20260508094750 8 188 0.0 0.0 0.00 0.00 0.00 80 1005.0
20260508094247 8 189 1.6 3.2 0.00 0.00 0.00 80 1005.1
20260508093744 8 169 0.0 1.6 0.00 0.00 0.00 81 1005.1
20260508093242 8 158 0.0 0.0 0.00 0.00 0.00 81 1004.8
20260508092738 8 160 0.0 0.0 0.00 0.00 0.00 81 1005.0
20260508092236 8 165 0.0 0.0 0.00 0.00 0.00 80 1005.1
20260508091734 8 194 1.6 1.6 0.00 0.00 0.00 80 1005.2
20260508091231 8 158 0.0 0.0 0.00 0.00 0.00 79 1005.2
20260508090729 8 155 0.0 1.6 0.00 0.00 0.00 79 1005.1
20260508090226 8 174 1.6 1.6 0.00 0.00 0.00 78 1005.3
20260508085722 8 152 1.6 1.6 0.00 0.00 0.00 78 1005.1
20260508085219 8 161 1.6 1.6 0.00 0.00 0.00 78 1005.3
20260508084715 8 156 1.6 3.2 0.00 0.00 0.00 78 1005.1
20260508084213 8 165 1.6 1.6 0.00 0.00 0.00 77 1005.1
20260508083710 8 196 3.2 4.8 0.00 0.00 0.00 77 1005.2
20260508083207 8 153 1.6 1.6 0.00 0.00 0.00 78 1005.3
20260508082701 8 186 4.8 4.8 0.00 0.00 0.00 78 1005.4
20260508082159 8 150 1.6 3.2 0.00 0.00 0.00 78 1005.3
20260508081657 8 271 4.8 9.7 0.00 0.00 0.00 78 1005.3
20260508081153 8 156 1.6 3.2 0.00 0.00 0.00 78 1005.4
20260508080650 8 163 1.6 1.6 0.00 0.00 0.00 79 1005.4
20260508080149 8 155 1.6 1.6 0.00 0.00 0.00 79 1005.3
20260508075644 8 164 1.6 1.6 0.00 0.00 0.00 78 1005.4
20260508075142 8 135 0.0 0.0 0.00 0.00 0.00 78 1005.4
20260508074639 8 154 0.0 0.0 0.00 0.00 0.00 76 1005.4
20260508074136 8 151 0.0 0.0 0.00 0.00 0.00 76 1005.3
20260508073633 8 149 1.6 1.6 0.00 0.00 0.00 75 1005.4
20260508073131 8 253 1.6 3.2 0.00 0.00 0.00 76 1005.5
20260508072626 8 143 0.0 0.0 0.00 0.00 0.00 75 1005.4
20260508072124 9 157 1.6 1.6 0.00 0.00 0.00 74 1005.6
20260508071621 9 221 1.6 3.2 0.00 0.00 0.00 73 1005.5
20260508071120 9 194 1.6 1.6 0.00 0.00 0.00 73 1005.4
20260508070617 9 170 1.6 3.2 0.00 0.00 0.00 73 1005.5
20260508070116 9 160 3.2 3.2 0.00 0.00 0.00 72 1005.6
20260508065613 8 155 3.2 6.4 0.00 0.00 0.00 72 1005.8
20260508065110 8 173 1.6 3.2 0.00 0.00 0.00 72 1005.6
20260508064608 8 167 0.0 0.0 0.00 0.00 0.00 72 1005.7
20260508064106 8 224 3.2 4.8 0.00 0.00 0.00 72 1005.6
20260508063602 8 159 1.6 1.6 0.00 0.00 0.00 72 1005.6
20260508063101 8 160 0.0 0.0 0.00 0.00 0.00 73 1005.6
20260508062557 8 161 0.0 0.0 0.00 0.00 0.00 72 1005.7
20260508062054 8 158 1.6 1.6 0.00 0.00 0.00 72 1005.6
20260508061552 8 153 1.6 1.6 0.00 0.00 0.00 70 1005.4
20260508061048 8 222 1.6 3.2 0.00 0.00 0.00 70 1005.6
20260508060545 8 154 0.0 0.0 0.00 0.00 0.00 71 1005.6
20260508060043 9 162 0.0 0.0 0.00 0.00 0.00 69 1005.7
20260508055538 9 157 0.0 1.6 0.00 0.00 0.00 69 1005.8
20260508055035 9 174 0.0 1.6 0.00 0.00 0.00 68 1005.6
20260508054532 9 192 3.2 3.2 0.00 0.00 0.00 68 1005.9
20260508054029 9 152 0.0 1.6 0.00 0.00 0.00 68 1006.0
20260508053526 9 184 1.6 1.6 0.00 0.00 0.00 68 1005.7
20260508053024 9 158 0.0 0.0 0.00 0.00 0.00 68 1005.9
20260508052521 9 160 0.0 0.0 0.00 0.00 0.00 68 1005.9
20260508052018 9 161 0.0 0.0 0.00 0.00 0.00 68 1006.1
20260508051514 9 166 1.6 1.6 0.00 0.00 0.00 68 1006.0
20260508051010 9 157 0.0 0.0 0.00 0.00 0.00 68 1006.1
20260508050506 10 157 0.0 0.0 0.00 0.00 0.00 67 1006.0
20260508050003 9 158 1.6 1.6 0.00 0.00 0.00 66 1006.1
20260508045459 9 156 0.0 0.0 0.00 0.00 0.00 67 1006.0
20260508044957 10 150 0.0 0.0 0.00 0.00 0.00 66 1006.2
20260508044454 9 167 1.6 1.6 0.00 0.00 0.00 65 1006.1
20260508043949 10 163 0.0 0.0 0.00 0.00 0.00 65 1006.3
20260508043447 10 217 3.2 3.2 0.00 0.00 0.00 65 1006.1
20260508042943 10 164 0.0 1.6 0.00 0.00 0.00 65 1006.2
20260508042441 10 163 0.0 0.0 0.00 0.00 0.00 64 1006.1
20260508041938 10 173 1.6 1.6 0.00 0.00 0.00 64 1006.4
20260508041434 10 156 0.0 1.6 0.00 0.00 0.00 64 1006.2
20260508040931 10 161 1.6 1.6 0.00 0.00 0.00 63 1006.2
20260508040428 10 162 0.0 0.0 0.00 0.00 0.00 63 1006.2
20260508035926 10 161 0.0 1.6 0.00 0.00 0.00 62 1006.2
20260508035423 10 171 3.2 6.4 0.00 0.00 0.00 62 1006.2
20260508034919 10 160 1.6 3.2 0.00 0.00 0.00 63 1006.2
20260508034417 10 168 1.6 1.6 0.00 0.00 0.00 63 1006.3
20260508033913 10 164 3.2 3.2 0.00 0.00 0.00 62 1006.2
20260508033412 10 152 1.6 3.2 0.00 0.00 0.00 61 1006.1
20260508032909 10 145 3.2 4.8 0.00 0.00 0.00 61 1006.3
20260508032406 10 272 6.4 11.3 0.00 0.00 0.00 60 1006.5
20260508031903 10 200 3.2 4.8 0.00 0.00 0.00 60 1006.2
20260508031400 10 148 3.2 3.2 0.00 0.00 0.00 59 1006.4
20260508030855 10 162 3.2 3.2 0.00 0.00 0.00 60 1006.5
20260508030353 10 154 1.6 1.6 0.00 0.00 0.00 60 1006.2
20260508025850 10 145 1.6 1.6 0.00 0.00 0.00 61 1006.5
20260508025341 10 175 1.6 1.6 0.00 0.00 0.00 60 1006.4
20260508024838 10 155 0.0 0.0 0.00 0.00 0.00 61 1006.5
20260508024335 10 223 3.2 3.2 0.00 0.00 0.00 61 1006.4
20260508023831 10 162 0.0 0.0 0.00 0.00 0.00 62 1006.3
20260508023329 10 189 1.6 3.2 0.00 0.00 0.00 62 1006.3
20260508022825 9 158 1.6 1.6 0.00 0.00 0.00 63 1006.2
20260508022321 9 160 0.0 0.0 0.00 0.00 0.00 64 1006.3
20260508021818 9 155 0.0 0.0 0.00 0.00 0.00 66 1006.4
20260508021314 9 154 0.0 0.0 0.00 0.00 0.00 64 1006.2
20260508020811 9 155 0.0 0.0 0.00 0.00 0.00 64 1006.2
20260508020309 8 161 1.6 3.2 0.00 0.00 0.00 64 1006.3
20260508015805 8 154 0.0 0.0 0.00 0.00 0.00 71 1006.2
20260508015305 8 145 0.0 0.0 0.00 0.00 0.00 73 1006.0
20260508014758 8 145 0.0 0.0 0.00 0.00 0.00 71 1006.0
20260508014256 8 146 0.0 0.0 0.00 0.00 0.00 71 1006.1
20260508013751 8 145 0.0 0.0 0.00 0.00 0.00 70 1005.9
20260508013248 8 145 0.0 0.0 0.00 0.00 0.00 69 1006.0
20260508012745 8 145 0.0 0.0 0.00 0.00 0.00 69 1006.0
20260508012242 8 145 0.0 0.0 0.00 0.00 0.00 69 1005.7
20260508011740 8 145 0.0 0.0 0.00 0.00 0.00 68 1005.7
20260508011237 8 145 0.0 0.0 0.00 0.00 0.00 66 1005.7
20260508010734 9 145 0.0 0.0 0.00 0.00 0.00 67 1005.8
20260508010233 9 145 0.0 0.0 0.00 0.00 0.00 64 1005.8
20260508005729 9 145 0.0 0.0 0.00 0.00 0.00 64 1005.7
20260508005226 9 145 0.0 0.0 0.00 0.00 0.00 63 1005.5
20260508004721 10 145 0.0 0.0 0.00 0.00 0.00 61 1005.8
20260508004218 10 145 0.0 0.0 0.00 0.00 0.00 60 1005.7
20260508003715 10 145 0.0 0.0 0.00 0.00 0.00 61 1005.7
20260508003212 10 145 0.0 0.0 0.00 0.00 0.00 59 1005.6
20260508002708 11 145 0.0 0.0 0.00 0.00 0.00 56 1005.5
20260508002206 11 136 0.0 0.0 0.00 0.00 0.00 55 1005.7
20260508001701 11 141 0.0 0.0 0.00 0.00 0.00 55 1005.6
20260508001157 11 150 0.0 0.0 0.00 0.00 0.00 52 1005.4
20260508000654 11 156 0.0 0.0 0.00 0.00 0.00 51 1005.5
20260508000151 12 268 1.6 3.2 0.00 0.00 0.00 51 1005.3
20260507235647 12 127 0.0 1.6 0.00 0.00 0.00 50 1005.5
20260507235145 12 117 1.6 1.6 0.00 0.00 0.00 52 1005.5
20260507234642 12 282 3.2 4.8 0.00 0.00 0.00 52 1005.4
20260507234133 12 155 0.0 0.0 0.00 0.00 0.00 50 1005.4
20260507233630 12 117 0.0 0.0 0.00 0.00 0.00 49 1005.5
20260507233128 12 155 0.0 0.0 0.00 0.00 0.00 47 1005.6
20260507232625 13 134 1.6 1.6 0.00 0.00 0.00 47 1005.4
20260507232122 13 123 4.8 6.4 0.00 0.00 0.00 48 1005.4
20260507231618 13 196 0.0 1.6 0.00 0.00 0.00 47 1005.6
20260507231115 13 167 0.0 0.0 0.00 0.00 0.00 46 1005.5
20260507230611 14 26 1.6 4.8 0.00 0.00 0.00 48 1005.7
20260507230108 13 208 1.6 1.6 0.00 0.00 0.00 49 1005.7
20260507225602 14 183 1.6 1.6 0.00 0.00 0.00 48 1005.9
20260507225100 13 137 0.0 0.0 0.00 0.00 0.00 49 1005.8
20260507224555 13 143 0.0 0.0 0.00 0.00 0.00 49 1005.9
20260507224052 13 113 1.6 3.2 0.00 0.00 0.00 51 1005.8
20260507223548 13 209 3.2 4.8 0.00 0.00 0.00 51 1005.9
20260507223045 12 358 6.4 9.7 0.00 0.00 0.00 50 1005.9
20260507222542 12 235 3.2 4.8 0.00 0.00 0.00 49 1005.7
20260507222038 12 276 4.8 6.4 0.00 0.00 0.00 48 1005.8
20260507221535 12 109 1.6 1.6 0.00 0.00 0.00 49 1005.7
20260507221032 12 139 1.6 1.6 0.00 0.00 0.00 50 1005.6
20260507220529 12 125 0.0 1.6 0.00 0.00 0.00 50 1005.9
20260507220027 13 291 3.2 3.2 0.00 0.00 0.00 47 1005.7
20260507215522 13 145 1.6 3.2 0.00 0.00 0.00 51 1005.7
20260507215021 13 11 4.8 6.4 0.00 0.00 0.00 50 1005.5
20260507214518 12 249 3.2 4.8 0.00 0.00 0.00 46 1005.8
20260507214013 13 34 3.2 4.8 0.00 0.00 0.00 48 1005.8
20260507213510 13 135 0.0 0.0 0.00 0.00 0.00 49 1005.5
20260507213007 13 122 1.6 3.2 0.00 0.00 0.00 47 1005.8
20260507212502 13 157 1.6 1.6 0.00 0.00 0.00 48 1005.6
20260507211959 13 137 4.8 6.4 0.00 0.00 0.00 47 1005.7
20260507211456 13 102 1.6 1.6 0.00 0.00 0.00 47 1005.6
20260507210953 13 199 3.2 3.2 0.00 0.00 0.00 45 1005.6
20260507210450 13 196 4.8 6.4 0.00 0.00 0.00 44 1005.6
20260507205947 13 275 3.2 9.7 0.00 0.00 0.00 46 1005.7
20260507205443 13 76 6.4 14.5 0.00 0.00 0.00 48 1005.5
20260507204939 13 235 1.6 3.2 0.00 0.00 0.00 49 1005.3
20260507204436 13 150 3.2 4.8 0.00 0.00 0.00 52 1005.5
20260507203934 13 239 3.2 3.2 0.00 0.00 0.00 51 1005.5
20260507203426 14 96 0.0 1.6 0.00 0.00 0.00 52 1005.4
20260507202922 14 160 0.0 0.0 0.00 0.00 0.00 50 1005.5
20260507202418 15 329 0.0 1.6 0.00 0.00 0.00 51 1005.5
20260507201914 15 239 1.6 3.2 0.00 0.00 0.00 51 1005.3
20260507201409 15 145 1.6 1.6 0.00 0.00 0.00 50 1005.3
20260507200907 15 131 0.0 1.6 0.00 0.00 0.00 53 1005.6
20260507200402 12 81 3.2 3.2 0.00 0.00 0.00 57 1005.6
20260507195858 12 145 1.6 1.6 0.00 0.00 0.00 57 1005.5
20260507195356 12 252 1.6 3.2 0.00 0.00 0.00 56 1005.3
20260507194853 12 120 1.6 1.6 0.00 0.00 0.00 57 1005.8
20260507194349 12 152 0.0 0.0 0.00 0.00 0.00 57 1005.5
20260507193846 12 23 1.6 1.6 0.00 0.00 0.00 57 1005.4
20260507193343 12 87 1.6 1.6 0.00 0.00 0.00 57 1005.7
20260507192839 13 109 3.2 4.8 0.00 0.00 0.00 55 1005.6
20260507192336 13 152 1.6 3.2 0.00 0.00 0.00 56 1005.7
20260507191832 13 209 4.8 4.8 0.00 0.00 0.00 58 1005.8
20260507191328 12 321 1.6 1.6 0.00 0.00 0.00 59 1005.7
20260507190825 13 21 1.6 3.2 0.00 0.00 0.00 57 1005.6
20260507190324 13 239 1.6 3.2 0.00 0.00 0.00 54 1005.6
20260507185822 13 139 1.6 3.2 0.00 0.00 0.00 55 1005.9
20260507185319 13 125 0.0 1.6 0.00 0.00 0.00 54 1005.8
20260507184816 14 102 1.6 3.2 0.00 0.00 0.00 51 1005.8
20260507184314 13 61 3.2 3.2 0.00 0.00 0.00 54 1005.8
20260507183810 13 148 3.2 4.8 0.00 0.00 0.00 51 1005.9
20260507183307 13 219 0.0 0.0 0.00 0.00 0.00 55 1005.9
20260507182805 13 112 3.2 4.8 0.00 0.00 0.00 53 1005.9
20260507182301 14 142 3.2 4.8 0.00 0.00 0.00 54 1005.8
20260507181757 14 70 1.6 3.2 0.00 0.00 0.00 54 1005.7
20260507181254 14 335 3.2 4.8 0.00 0.00 0.00 54 1005.8
20260507180750 13 239 3.2 3.2 0.00 0.00 0.00 57 1006.0
20260507180247 14 159 4.8 6.4 0.00 0.00 0.00 53 1005.9
20260507175743 13 147 1.6 3.2 0.00 0.00 0.00 52 1005.9
20260507175240 13 314 3.2 3.2 0.00 0.00 0.00 53 1006.1
20260507174737 13 206 3.2 4.8 0.00 0.00 0.00 55 1006.0
20260507174235 13 153 3.2 3.2 0.00 0.00 0.00 56 1006.0
20260507173732 13 134 0.0 0.0 0.00 0.00 0.00 58 1006.0
20260507173229 13 138 3.2 3.2 0.00 0.00 0.00 53 1006.0
20260507172725 13 129 0.0 1.6 0.00 0.00 0.00 56 1006.3
20260507172222 13 64 1.6 3.2 0.00 0.00 0.00 56 1006.4
20260507171722 13 114 0.0 1.6 0.00 0.00 0.00 55 1006.2
20260507171220 12 181 4.8 6.4 0.00 0.00 0.00 58 1006.3
20260507170716 12 252 4.8 6.4 0.00 0.00 0.00 62 1006.2
20260507170214 12 211 3.2 3.2 0.00 0.00 0.00 64 1006.5
20260507165709 12 160 3.2 3.2 0.00 0.00 0.00 68 1006.5
20260507165206 12 168 1.6 3.2 0.00 0.00 0.00 66 1006.4
20260507164701 12 220 4.8 6.4 0.00 0.00 0.00 62 1006.2
20260507164159 12 103 1.6 1.6 0.00 0.00 0.00 63 1006.3
20260507163656 11 119 1.6 3.2 0.00 0.00 0.00 60 1006.3
20260507163154 12 157 3.2 4.8 0.00 0.00 0.00 58 1006.2
20260507162649 12 94 0.0 1.6 0.00 0.00 0.00 62 1006.2
20260507162146 12 147 1.6 3.2 0.00 0.00 0.00 60 1006.2
20260507161642 12 168 0.0 1.6 0.00 0.00 0.00 64 1006.0
20260507161139 12 49 3.2 3.2 0.00 0.00 0.00 60 1006.2
20260507160635 12 104 1.6 3.2 0.00 0.00 0.00 60 1006.3
20260507160132 11 131 0.0 1.6 0.00 0.00 0.00 64 1006.3
20260507155627 11 58 1.6 3.2 0.00 0.00 0.00 62 1006.3
20260507155124 11 145 0.0 0.0 0.00 0.00 0.00 63 1006.4
20260507154621 11 270 3.2 6.4 0.00 0.00 0.00 62 1006.4
20260507154118 11 51 3.2 3.2 0.00 0.00 0.00 61 1006.4
20260507153614 12 12 1.6 1.6 0.00 0.00 0.00 63 1006.5
20260507153111 11 164 0.0 0.0 0.00 0.00 0.00 66 1006.4
20260507152607 11 156 0.0 0.0 0.00 0.00 0.00 65 1006.5
20260507152103 11 213 1.6 1.6 0.00 0.00 0.00 63 1006.5
20260507151600 11 127 1.6 1.6 0.00 0.00 0.00 67 1006.6
20260507151057 11 145 0.0 1.6 0.00 0.00 0.00 68 1006.5
20260507150554 11 116 3.2 3.2 0.00 0.00 0.00 67 1006.5
20260507150051 11 126 3.2 3.2 0.00 0.00 0.00 69 1006.4
20260507145545 11 110 3.2 4.8 0.00 0.00 0.00 71 1006.4
20260507145044 11 126 1.6 1.6 0.00 0.00 0.00 71 1006.4
20260507144540 11 136 0.0 0.0 0.00 0.00 0.00 71 1006.3
20260507144038 11 108 1.6 3.2 0.00 0.00 0.00 71 1006.2
20260507143535 11 139 0.0 0.0 0.00 0.00 0.00 71 1006.2
20260507143032 11 37 1.6 1.6 0.00 0.00 0.00 70 1006.3
20260507142527 11 117 0.0 0.0 0.00 0.00 0.00 71 1006.2
20260507142025 11 153 0.0 0.0 0.00 0.00 0.00 71 1006.3
20260507141520 11 115 3.2 3.2 0.00 0.00 0.00 70 1006.3
20260507141017 11 142 0.0 0.0 0.00 0.00 0.00 72 1006.2
20260507140514 11 156 0.0 0.0 0.00 0.00 0.00 71 1006.2
20260507140012 11 187 1.6 1.6 0.00 0.00 0.00 71 1006.4
20260507135508 11 146 3.2 4.8 0.00 0.00 0.00 73 1006.5
20260507135006 11 171 1.6 3.2 0.00 0.00 0.00 70 1006.6
20260507134502 11 121 0.0 1.6 0.00 0.00 0.00 72 1006.5
20260507133958 11 126 0.0 0.0 0.00 0.00 0.00 71 1006.7
20260507133454 10 149 1.6 3.2 0.00 0.00 0.00 72 1006.6
20260507132953 10 75 1.6 1.6 0.00 0.00 0.00 73 1006.6
20260507132448 10 147 0.0 0.0 0.00 0.00 0.00 75 1006.6
20260507131945 10 142 0.0 1.6 0.00 0.00 0.00 75 1006.7
20260507131442 10 165 1.6 1.6 0.00 0.00 0.00 74 1006.5
20260507130939 9 136 0.0 0.0 0.00 0.00 0.00 75 1006.4
20260507130436 9 144 0.0 0.0 0.00 0.00 0.00 75 1006.5